Location: ??????
(36.0418°N, 43.6351°E)
Time: 03:03:06
(UTC+00:00)

Cosmos 1328 Rocket - Pass Details

Date: 07 March 2021
Orbit: 602 x 626 km, 82.5° (Epoch: 22 April)

Event Time Altitude Azimuth Distance (km) Brightness Sun altitude
Rises 02:06:49 0° 181° (S) 2,839 6.9 -17.2°
Reaches altitude 10° 02:09:01 10° 179° (S) 1,939 6.1 -16.7°
Maximum altitude 02:13:17 72° 95° (E) 636 3.7 -15.9°
Drops below altitude 10° 02:17:35 10° 11° (NNE) 1,954 6.3 -15.0°
Sets 02:19:48 0° 10° (N) 2,862 7.2 -14.5°
